Time,TemperatureF,DewpointF,PressureIn,WindDirection,WindDirectionDegrees,WindSpeedMPH,WindSpeedGustMPH,Humidity,HourlyPrecipIn,Conditions,Clouds,dailyrainin,SolarRadiationWatts/m^2,SoftwareType,DateUTC
2013-04-23 00:02:00,34.0,5.0,-100.00,ENE,68,1.0,11.0,29,0.00,,,0.00,0.000000,,2013-04-23 07:02:00,
2013-04-23 00:11:00,34.0,5.0,-100.00,ENE,68,1.0,11.0,29,0.00,,,0.00,0.000000,,2013-04-23 07:11:00,
2013-04-23 00:21:00,34.0,5.0,-100.00,ENE,68,1.0,11.0,29,0.00,,,0.00,0.000000,,2013-04-23 07:21:00,
2013-04-23 00:32:00,34.0,5.0,-100.00,ENE,68,1.0,11.0,29,0.00,,,0.00,0.000000,,2013-04-23 07:32:00,
2013-04-23 00:52:00,35.0,10.0,-100.00,ENE,64,3.0,9.0,35,0.00,,,0.00,0.000000,,2013-04-23 07:52:00,
2013-04-23 01:02:00,35.0,10.0,-100.00,ENE,64,3.0,9.0,35,0.00,,,0.00,0.000000,,2013-04-23 08:02:00,
2013-04-23 01:11:00,35.0,10.0,-100.00,ENE,64,3.0,9.0,35,0.00,,,0.00,0.000000,,2013-04-23 08:11:00,
2013-04-23 01:21:00,35.0,10.0,-100.00,ENE,64,3.0,9.0,35,0.00,,,0.00,0.000000,,2013-04-23 08:21:00,
2013-04-23 01:31:00,35.0,10.0,-100.00,ENE,64,3.0,9.0,35,0.00,,,0.00,0.000000,,2013-04-23 08:31:00,
2013-04-23 01:52:00,34.0,11.0,-100.00,NE,42,1.0,5.0,37,0.00,,,0.00,0.000000,,2013-04-23 08:52:00,
2013-04-23 02:01:00,34.0,11.0,-100.00,NE,42,1.0,5.0,37,0.00,,,0.00,0.000000,,2013-04-23 09:01:00,
2013-04-23 02:11:00,34.0,11.0,-100.00,NE,42,1.0,5.0,37,0.00,,,0.00,0.000000,,2013-04-23 09:11:00,
2013-04-23 02:21:00,34.0,11.0,-100.00,NE,42,1.0,5.0,37,0.00,,,0.00,0.000000,,2013-04-23 09:21:00,
2013-04-23 02:32:00,34.0,11.0,-100.00,NE,42,1.0,5.0,37,0.00,,,0.00,0.000000,,2013-04-23 09:32:00,
2013-04-23 02:53:00,34.0,11.0,-100.00,NE,42,2.0,3.0,37,0.00,,,0.00,0.000000,,2013-04-23 09:53:00,
2013-04-23 03:02:00,34.0,11.0,-100.00,NE,42,2.0,3.0,37,0.00,,,0.00,0.000000,,2013-04-23 10:02:00,
2013-04-23 03:12:00,34.0,11.0,-100.00,NE,42,2.0,3.0,37,0.00,,,0.00,0.000000,,2013-04-23 10:12:00,
2013-04-23 03:22:00,34.0,11.0,-100.00,NE,42,2.0,3.0,37,0.00,,,0.00,0.000000,,2013-04-23 10:22:00,
2013-04-23 03:32:00,34.0,11.0,-100.00,NE,42,2.0,3.0,37,0.00,,,0.00,0.000000,,2013-04-23 10:32:00,
2013-04-23 03:52:00,33.0,10.0,-100.00,SW,227,0.0,2.0,37,0.00,,,0.00,0.000000,,2013-04-23 10:52:00,
2013-04-23 04:02:00,33.0,10.0,-100.00,SW,227,0.0,2.0,37,0.00,,,0.00,0.000000,,2013-04-23 11:02:00,
2013-04-23 04:12:00,33.0,10.0,-100.00,SW,227,0.0,2.0,37,0.00,,,0.00,0.000000,,2013-04-23 11:12:00,
2013-04-23 04:21:00,33.0,10.0,-100.00,SW,227,0.0,2.0,37,0.00,,,0.00,0.000000,,2013-04-23 11:21:00,
2013-04-23 04:32:00,33.0,10.0,-100.00,SW,227,0.0,2.0,37,0.00,,,0.00,0.000000,,2013-04-23 11:32:00,
2013-04-23 04:53:00,34.0,11.0,-100.00,West,281,3.0,4.0,38,0.00,,,0.00,0.000000,,2013-04-23 11:53:00,
2013-04-23 05:02:00,34.0,11.0,-100.00,West,281,3.0,4.0,38,0.00,,,0.00,0.000000,,2013-04-23 12:02:00,
2013-04-23 05:12:00,34.0,11.0,-100.00,West,281,3.0,4.0,38,0.00,,,0.00,0.000000,,2013-04-23 12:12:00,
2013-04-23 05:22:00,34.0,11.0,-100.00,West,281,3.0,4.0,38,0.00,,,0.00,0.000000,,2013-04-23 12:22:00,
2013-04-23 05:32:00,34.0,11.0,-100.00,West,281,3.0,4.0,38,0.00,,,0.00,0.000000,,2013-04-23 12:32:00,
2013-04-23 05:52:00,35.0,7.0,-100.00,NW,315,3.0,6.0,31,0.00,,,-99.99,0.000000,,2013-04-23 12:52:00,
2013-04-23 06:01:00,35.0,7.0,-100.00,NW,315,3.0,6.0,31,0.00,,,-99.99,0.000000,,2013-04-23 13:01:00,
2013-04-23 06:11:00,35.0,7.0,-100.00,NW,315,3.0,6.0,31,0.00,,,-99.99,0.000000,,2013-04-23 13:11:00,
2013-04-23 06:21:00,35.0,7.0,-100.00,NW,315,3.0,6.0,31,0.00,,,-99.99,0.000000,,2013-04-23 13:21:00,
2013-04-23 06:32:00,35.0,7.0,-100.00,NW,315,3.0,6.0,31,0.00,,,-99.99,0.000000,,2013-04-23 13:32:00,
2013-04-23 06:52:00,34.0,5.0,-100.00,South,190,2.0,3.0,29,-99.99,,,0.00,7.000000,,2013-04-23 13:52:00,
2013-04-23 07:01:00,34.0,5.0,-100.00,South,190,2.0,3.0,29,-99.99,,,0.00,7.000000,,2013-04-23 14:01:00,
2013-04-23 07:11:00,34.0,5.0,-100.00,South,190,2.0,3.0,29,-99.99,,,0.00,7.000000,,2013-04-23 14:11:00,
2013-04-23 07:22:00,34.0,5.0,-100.00,South,190,2.0,3.0,29,-99.99,,,0.00,7.000000,,2013-04-23 14:22:00,
2013-04-23 07:31:00,34.0,5.0,-100.00,South,190,2.0,3.0,29,-99.99,,,0.00,7.000000,,2013-04-23 14:31:00,
2013-04-23 07:52:00,38.0,13.0,-100.00,SSW,194,2.0,4.0,35,0.00,,,0.00,106.000000,,2013-04-23 14:52:00,
2013-04-23 08:01:00,38.0,13.0,-100.00,SSW,194,2.0,4.0,35,0.00,,,0.00,106.000000,,2013-04-23 15:01:00,
2013-04-23 08:12:00,38.0,13.0,-100.00,SSW,194,2.0,4.0,35,0.00,,,0.00,106.000000,,2013-04-23 15:12:00,
2013-04-23 08:53:00,38.0,15.0,-100.00,South,184,3.0,4.0,39,-99.99,,,0.00,310.000000,,2013-04-23 15:53:00,
2013-04-23 09:02:00,38.0,15.0,-100.00,South,184,3.0,4.0,39,-99.99,,,0.00,310.000000,,2013-04-23 16:02:00,
2013-04-23 09:12:00,38.0,15.0,-100.00,South,184,3.0,4.0,39,-99.99,,,0.00,310.000000,,2013-04-23 16:12:00,
2013-04-23 09:23:00,38.0,15.0,-100.00,South,184,3.0,4.0,39,-99.99,,,0.00,310.000000,,2013-04-23 16:23:00,
2013-04-23 09:33:00,38.0,15.0,-100.00,South,184,3.0,4.0,39,-99.99,,,0.00,310.000000,,2013-04-23 16:33:00,
2013-04-23 09:53:00,38.0,16.0,-100.00,SSW,211,5.0,7.0,40,0.00,,,0.00,464.000000,,2013-04-23 16:53:00,
2013-04-23 10:02:00,38.0,16.0,-100.00,SSW,211,5.0,7.0,40,0.00,,,0.00,464.000000,,2013-04-23 17:02:00,
2013-04-23 10:11:00,38.0,16.0,-100.00,SSW,211,5.0,7.0,40,0.00,,,0.00,464.000000,,2013-04-23 17:11:00,
2013-04-23 10:22:00,38.0,16.0,-100.00,SSW,211,5.0,7.0,40,0.00,,,0.00,464.000000,,2013-04-23 17:22:00,
2013-04-23 10:32:00,38.0,16.0,-100.00,SSW,211,5.0,7.0,40,0.00,,,0.00,464.000000,,2013-04-23 17:32:00,
2013-04-23 10:53:00,43.0,18.0,-100.00,SSW,194,4.0,7.0,36,0.00,,,0.00,641.000000,,2013-04-23 17:53:00,
2013-04-23 11:02:00,43.0,18.0,-100.00,SSW,194,4.0,7.0,36,0.00,,,0.00,641.000000,,2013-04-23 18:02:00,
2013-04-23 11:12:00,43.0,18.0,-100.00,SSW,194,4.0,7.0,36,0.00,,,0.00,641.000000,,2013-04-23 18:12:00,
2013-04-23 11:22:00,43.0,18.0,-100.00,SSW,194,4.0,7.0,36,0.00,,,0.00,641.000000,,2013-04-23 18:22:00,
2013-04-23 11:31:00,43.0,18.0,-100.00,SSW,194,4.0,7.0,36,0.00,,,0.00,641.000000,,2013-04-23 18:31:00,
2013-04-23 11:52:00,47.0,15.0,-100.00,South,189,5.0,7.0,27,0.00,,,0.00,804.000000,,2013-04-23 18:52:00,
2013-04-23 12:02:00,47.0,15.0,-100.00,South,189,5.0,7.0,27,0.00,,,0.00,804.000000,,2013-04-23 19:02:00,
2013-04-23 12:11:00,47.0,15.0,-100.00,South,189,5.0,7.0,27,0.00,,,0.00,804.000000,,2013-04-23 19:11:00,
2013-04-23 12:21:00,47.0,15.0,-100.00,South,189,5.0,7.0,27,0.00,,,0.00,804.000000,,2013-04-23 19:21:00,
2013-04-23 12:32:00,47.0,15.0,-100.00,South,189,5.0,7.0,27,0.00,,,0.00,804.000000,,2013-04-23 19:32:00,
2013-04-23 12:52:00,50.0,11.0,-100.00,SSW,193,6.0,9.0,20,0.00,,,0.00,863.000000,,2013-04-23 19:52:00,
2013-04-23 13:01:00,50.0,11.0,-100.00,SSW,193,6.0,9.0,20,0.00,,,0.00,863.000000,,2013-04-23 20:01:00,
2013-04-23 13:11:00,50.0,11.0,-100.00,SSW,193,6.0,9.0,20,0.00,,,0.00,863.000000,,2013-04-23 20:11:00,
2013-04-23 13:21:00,50.0,11.0,-100.00,SSW,193,6.0,9.0,20,0.00,,,0.00,863.000000,,2013-04-23 20:21:00,
2013-04-23 13:31:00,50.0,11.0,-100.00,SSW,193,6.0,9.0,20,0.00,,,0.00,863.000000,,2013-04-23 20:31:00,
2013-04-23 13:52:00,54.0,15.0,-100.00,ESE,123,5.0,10.0,21,0.00,,,0.00,908.000000,,2013-04-23 20:52:00,
2013-04-23 14:01:00,54.0,15.0,-100.00,ESE,123,5.0,10.0,21,0.00,,,0.00,908.000000,,2013-04-23 21:01:00,
2013-04-23 14:11:00,54.0,15.0,-100.00,ESE,123,5.0,10.0,21,0.00,,,0.00,908.000000,,2013-04-23 21:11:00,
2013-04-23 14:21:00,54.0,15.0,-100.00,ESE,123,5.0,10.0,21,0.00,,,0.00,908.000000,,2013-04-23 21:21:00,
2013-04-23 14:32:00,54.0,15.0,-100.00,ESE,123,5.0,10.0,21,0.00,,,0.00,908.000000,,2013-04-23 21:32:00,
2013-04-23 14:52:00,56.0,12.0,-100.00,ESE,106,6.0,12.0,17,0.00,,,0.00,889.000000,,2013-04-23 21:52:00,
2013-04-23 15:03:00,56.0,12.0,-100.00,ESE,106,6.0,12.0,17,0.00,,,0.00,889.000000,,2013-04-23 22:03:00,
2013-04-23 15:12:00,56.0,12.0,-100.00,ESE,106,6.0,12.0,17,0.00,,,0.00,889.000000,,2013-04-23 22:12:00,
2013-04-23 15:22:00,56.0,12.0,-100.00,ESE,106,6.0,12.0,17,0.00,,,0.00,889.000000,,2013-04-23 22:22:00,
2013-04-23 15:32:00,56.0,12.0,-100.00,ESE,106,6.0,12.0,17,0.00,,,0.00,889.000000,,2013-04-23 22:32:00,
2013-04-23 15:52:00,56.0,14.0,-100.00,NE,44,14.0,19.0,19,0.00,,,0.00,663.000000,,2013-04-23 22:52:00,
2013-04-23 16:02:00,56.0,14.0,-100.00,NE,44,14.0,19.0,19,0.00,,,0.00,663.000000,,2013-04-23 23:02:00,
2013-04-23 16:12:00,56.0,14.0,-100.00,NE,44,14.0,19.0,19,0.00,,,0.00,663.000000,,2013-04-23 23:12:00,
2013-04-23 16:22:00,56.0,14.0,-100.00,NE,44,14.0,19.0,19,0.00,,,0.00,663.000000,,2013-04-23 23:22:00,
2013-04-23 16:31:00,56.0,14.0,-100.00,NE,44,14.0,19.0,19,0.00,,,0.00,663.000000,,2013-04-23 23:31:00,
2013-04-23 16:52:00,52.0,12.0,-100.00,NNE,26,15.0,23.0,20,0.00,,,0.00,376.000000,,2013-04-23 23:52:00,
2013-04-23 17:01:00,52.0,12.0,-100.00,NNE,26,15.0,23.0,20,0.00,,,0.00,376.000000,,2013-04-24 00:01:00,
2013-04-23 17:11:00,52.0,12.0,-100.00,NNE,26,15.0,23.0,20,0.00,,,0.00,376.000000,,2013-04-24 00:11:00,
2013-04-23 17:21:00,52.0,12.0,-100.00,NNE,26,15.0,23.0,20,0.00,,,0.00,376.000000,,2013-04-24 00:21:00,
2013-04-23 17:32:00,52.0,12.0,-100.00,NNE,26,15.0,23.0,20,0.00,,,0.00,376.000000,,2013-04-24 00:32:00,
2013-04-23 17:52:00,52.0,13.0,-100.00,NNE,32,17.0,28.0,21,0.00,,,0.00,308.000000,,2013-04-24 00:52:00,
2013-04-23 18:01:00,52.0,13.0,-100.00,NNE,32,17.0,28.0,21,0.00,,,0.00,308.000000,,2013-04-24 01:01:00,
2013-04-23 18:11:00,52.0,13.0,-100.00,NNE,32,17.0,28.0,21,0.00,,,0.00,308.000000,,2013-04-24 01:11:00,
2013-04-23 18:21:00,52.0,13.0,-100.00,NNE,32,17.0,28.0,21,0.00,,,0.00,308.000000,,2013-04-24 01:21:00,
2013-04-23 18:31:00,52.0,13.0,-100.00,NNE,32,17.0,28.0,21,0.00,,,0.00,308.000000,,2013-04-24 01:31:00,
2013-04-23 18:52:00,49.0,12.0,-100.00,NE,35,14.0,26.0,22,0.00,,,0.00,213.000000,,2013-04-24 01:52:00,
2013-04-23 19:02:00,49.0,12.0,-100.00,NE,35,14.0,26.0,22,0.00,,,0.00,213.000000,,2013-04-24 02:02:00,
2013-04-23 19:14:00,49.0,12.0,-100.00,NE,35,14.0,26.0,22,0.00,,,0.00,213.000000,,2013-04-24 02:14:00,
2013-04-23 19:24:00,49.0,12.0,-100.00,NE,35,14.0,26.0,22,0.00,,,0.00,213.000000,,2013-04-24 02:24:00,
2013-04-23 19:33:00,49.0,12.0,-100.00,NE,35,14.0,26.0,22,0.00,,,0.00,213.000000,,2013-04-24 02:33:00,
2013-04-23 19:34:00,46.0,11.0,-100.00,NE,50,10.0,19.0,24,0.00,,,0.00,57.000000,,2013-04-24 02:34:00,
2013-04-23 19:58:00,46.0,11.0,-100.00,NE,50,10.0,19.0,24,0.00,,,0.00,57.000000,,2013-04-24 02:58:00,
2013-04-23 20:06:00,46.0,11.0,-100.00,NE,50,10.0,19.0,24,0.00,,,0.00,57.000000,,2013-04-24 03:06:00,
2013-04-23 20:14:00,46.0,11.0,-100.00,NE,50,10.0,19.0,24,0.00,,,0.00,57.000000,,2013-04-24 03:14:00,
2013-04-23 20:24:00,46.0,11.0,-100.00,NE,50,10.0,19.0,24,0.00,,,0.00,57.000000,,2013-04-24 03:24:00,
2013-04-23 21:00:00,43.0,11.0,-100.00,NE,48,14.0,22.0,27,0.00,,,0.00,5.000000,,2013-04-24 04:00:00,
2013-04-23 21:03:00,43.0,11.0,-100.00,NE,48,14.0,22.0,27,0.00,,,0.00,5.000000,,2013-04-24 04:03:00,
2013-04-23 21:12:00,43.0,11.0,-100.00,NE,48,14.0,22.0,27,0.00,,,0.00,5.000000,,2013-04-24 04:12:00,
2013-04-23 21:22:00,43.0,11.0,-100.00,NE,48,14.0,22.0,27,0.00,,,0.00,5.000000,,2013-04-24 04:22:00,
2013-04-23 21:33:00,43.0,11.0,-100.00,NE,48,14.0,22.0,27,0.00,,,0.00,5.000000,,2013-04-24 04:33:00,
2013-04-23 21:53:00,43.0,12.0,-100.00,NE,56,16.0,25.0,28,0.00,,,0.00,0.000000,,2013-04-24 04:53:00,
2013-04-23 22:02:00,43.0,12.0,-100.00,NE,56,16.0,25.0,28,0.00,,,0.00,0.000000,,2013-04-24 05:02:00,
2013-04-23 22:12:00,43.0,12.0,-100.00,NE,56,16.0,25.0,28,0.00,,,0.00,0.000000,,2013-04-24 05:12:00,
2013-04-23 22:21:00,43.0,12.0,-100.00,NE,56,16.0,25.0,28,0.00,,,0.00,0.000000,,2013-04-24 05:21:00,
2013-04-23 22:32:00,43.0,12.0,-100.00,NE,56,16.0,25.0,28,0.00,,,0.00,0.000000,,2013-04-24 05:32:00,
2013-04-23 22:52:00,42.0,11.0,-100.00,ENE,57,12.0,22.0,28,0.00,,,0.00,0.000000,,2013-04-24 05:52:00,
2013-04-23 23:02:00,42.0,11.0,-100.00,ENE,57,12.0,22.0,28,0.00,,,0.00,0.000000,,2013-04-24 06:02:00,
2013-04-23 23:11:00,42.0,11.0,-100.00,ENE,57,12.0,22.0,28,0.00,,,0.00,0.000000,,2013-04-24 06:11:00,
2013-04-23 23:21:00,42.0,11.0,-100.00,ENE,57,12.0,22.0,28,0.00,,,0.00,0.000000,,2013-04-24 06:21:00,
2013-04-23 23:32:00,42.0,11.0,-100.00,ENE,57,12.0,22.0,28,0.00,,,0.00,0.000000,,2013-04-24 06:32:00,
2013-04-23 23:52:00,42.0,10.0,-100.00,NE,49,11.0,24.0,26,0.00,,,0.00,0.000000,,2013-04-24 06:52:00,